Time,TemperatureF,DewpointF,PressureIn,WindDirection,WindDirectionDegrees,WindSpeedMPH,WindSpeedGustMPH,Humidity,HourlyPrecipIn,Conditions,Clouds,dailyrainin,SoftwareType,DateUTC
2013-01-30 00:00:00,47.6,43.0,30.24,East,82,0.0,11.0,84,0.00,,---,0.01,VWS V14.01,2013-01-30 08:00:00,
2013-01-30 00:05:00,47.6,43.0,30.24,East,83,0.0,5.0,84,0.00,,---,0.00,VWS V14.01,2013-01-30 08:05:00,
2013-01-30 00:10:00,47.4,42.5,30.24,ENE,66,1.0,6.0,83,0.00,,---,0.00,VWS V14.01,2013-01-30 08:10:00,
2013-01-30 00:15:00,47.4,42.5,30.24,ENE,67,4.0,6.0,83,0.00,,---,0.00,VWS V14.01,2013-01-30 08:15:00,
2013-01-30 00:20:00,47.1,41.9,30.23,East,79,3.0,10.0,82,0.00,,---,0.00,VWS V14.01,2013-01-30 08:20:00,
2013-01-30 00:25:00,47.0,41.5,30.23,ENE,73,2.0,10.0,81,0.00,,---,0.00,VWS V14.01,2013-01-30 08:25:00,
2013-01-30 00:30:00,46.7,41.2,30.23,East,85,3.0,10.0,81,0.00,,---,0.00,VWS V14.01,2013-01-30 08:30:00,
2013-01-30 00:35:00,46.4,40.9,30.23,East,84,7.0,10.0,81,0.00,,---,0.00,VWS V14.01,2013-01-30 08:35:00,
2013-01-30 00:40:00,46.1,40.9,30.23,East,88,4.0,10.0,82,0.00,,---,0.00,VWS V14.01,2013-01-30 08:40:00,
2013-01-30 00:45:00,45.8,40.6,30.23,ENE,70,4.0,10.0,82,0.00,,---,0.00,VWS V14.01,2013-01-30 08:45:00,
2013-01-30 00:51:00,45.7,40.8,30.23,ENE,76,4.0,11.0,83,0.00,,---,0.00,VWS V14.01,2013-01-30 08:51:00,
2013-01-30 00:56:00,45.7,40.8,30.23,NE,54,5.0,11.0,83,0.00,,---,0.00,VWS V14.01,2013-01-30 08:56:00,
2013-01-30 01:01:00,45.7,40.8,30.23,ENE,67,2.0,11.0,83,0.00,,---,0.00,VWS V14.01,2013-01-30 09:01:00,
2013-01-30 01:06:00,45.8,40.9,30.23,ENE,60,0.0,5.0,83,0.00,,---,0.00,VWS V14.01,2013-01-30 09:06:00,
2013-01-30 01:11:00,46.0,41.1,30.23,East,82,0.0,5.0,83,0.00,,---,0.00,VWS V14.01,2013-01-30 09:11:00,
2013-01-30 01:16:00,46.0,41.1,30.23,ENE,67,3.0,5.0,83,0.00,,---,0.00,VWS V14.01,2013-01-30 09:16:00,
2013-01-30 01:21:00,45.8,40.9,30.23,ENE,59,0.0,5.0,83,0.00,,---,0.00,VWS V14.01,2013-01-30 09:21:00,
2013-01-30 01:26:00,45.7,40.8,30.23,ENE,69,1.0,5.0,83,0.00,,---,0.00,VWS V14.01,2013-01-30 09:26:00,
2013-01-30 01:31:00,45.5,40.7,30.23,NE,51,0.0,5.0,83,0.00,,---,0.00,VWS V14.01,2013-01-30 09:31:00,
2013-01-30 01:36:00,45.4,40.5,30.23,East,83,1.0,6.0,83,0.00,,---,0.00,VWS V14.01,2013-01-30 09:36:00,
2013-01-30 01:41:00,45.4,40.5,30.23,ENE,58,4.0,6.0,83,0.00,,---,0.00,VWS V14.01,2013-01-30 09:41:00,
2013-01-30 01:46:00,45.4,40.5,30.23,East,82,5.0,7.0,83,0.00,,---,0.00,VWS V14.01,2013-01-30 09:46:00,
2013-01-30 01:51:00,45.4,40.5,30.23,ENE,69,7.0,11.0,83,0.00,,---,0.00,VWS V14.01,2013-01-30 09:51:00,
2013-01-30 01:56:00,45.2,40.3,30.23,East,79,1.0,11.0,83,0.00,,---,0.00,VWS V14.01,2013-01-30 09:56:00,
2013-01-30 02:01:00,45.1,40.2,30.23,ENE,78,0.0,11.0,83,0.00,,---,0.00,VWS V14.01,2013-01-30 10:01:00,
2013-01-30 02:06:00,45.1,40.2,30.23,ENE,72,4.0,5.0,83,0.00,,---,0.00,VWS V14.01,2013-01-30 10:06:00,
2013-01-30 02:11:00,45.2,40.3,30.23,ENE,76,5.0,6.0,83,0.00,,---,0.00,VWS V14.01,2013-01-30 10:11:00,
2013-01-30 02:16:00,45.1,40.2,30.23,East,82,0.0,6.0,83,0.00,,---,0.00,VWS V14.01,2013-01-30 10:16:00,
2013-01-30 02:21:00,45.1,40.2,30.23,ENE,67,3.0,8.0,83,0.00,,---,0.00,VWS V14.01,2013-01-30 10:21:00,
2013-01-30 02:26:00,45.1,40.2,30.23,ENE,65,0.0,8.0,83,0.00,,---,0.00,VWS V14.01,2013-01-30 10:26:00,
2013-01-30 02:31:00,44.9,40.1,30.23,ENE,74,0.0,8.0,83,0.00,,---,0.00,VWS V14.01,2013-01-30 10:31:00,
2013-01-30 02:36:00,44.8,40.0,30.23,ENE,74,0.0,0.0,83,0.00,,---,0.00,VWS V14.01,2013-01-30 10:36:00,
2013-01-30 02:41:00,44.6,40.1,30.23,ENE,69,0.0,4.0,84,0.00,,---,0.00,VWS V14.01,2013-01-30 10:41:00,
2013-01-30 02:46:00,44.6,40.1,30.23,East,85,0.0,4.0,84,0.00,,---,0.00,VWS V14.01,2013-01-30 10:46:00,
2013-01-30 02:51:00,44.5,40.0,30.23,ENE,67,0.0,4.0,84,0.00,,---,0.00,VWS V14.01,2013-01-30 10:51:00,
2013-01-30 02:56:00,44.8,40.3,30.23,ENE,67,1.0,7.0,84,0.00,,---,0.00,VWS V14.01,2013-01-30 10:56:00,
2013-01-30 03:01:00,44.8,40.3,30.23,NE,47,0.0,7.0,84,0.00,,---,0.00,VWS V14.01,2013-01-30 11:01:00,
2013-01-30 03:06:00,44.9,40.4,30.23,NE,55,0.0,0.0,84,0.00,,---,0.00,VWS V14.01,2013-01-30 11:06:00,
2013-01-30 03:11:00,44.9,40.4,30.23,ENE,71,0.0,5.0,84,0.00,,---,0.00,VWS V14.01,2013-01-30 11:11:00,
2013-01-30 03:16:00,44.9,40.1,30.23,East,82,0.0,5.0,83,0.00,,---,0.00,VWS V14.01,2013-01-30 11:16:00,
2013-01-30 03:21:00,44.8,40.0,30.23,East,83,4.0,5.0,83,0.00,,---,0.00,VWS V14.01,2013-01-30 11:21:00,
2013-01-30 03:26:00,44.6,39.8,30.23,East,83,0.0,5.0,83,0.00,,---,0.00,VWS V14.01,2013-01-30 11:26:00,
2013-01-30 03:31:00,44.3,39.5,30.23,East,83,0.0,5.0,83,0.00,,---,0.00,VWS V14.01,2013-01-30 11:31:00,
2013-01-30 03:36:00,44.1,39.6,30.23,East,101,0.0,1.0,84,0.00,,---,0.00,VWS V14.01,2013-01-30 11:36:00,
2013-01-30 03:41:00,43.9,39.7,30.23,East,89,0.0,2.0,85,0.00,,---,0.00,VWS V14.01,2013-01-30 11:41:00,
2013-01-30 03:46:00,43.8,39.6,30.22,East,97,0.0,2.0,85,0.00,,---,0.00,VWS V14.01,2013-01-30 11:46:00,
2013-01-30 03:52:00,43.9,39.7,30.22,ENE,63,0.0,2.0,85,0.00,,---,0.00,VWS V14.01,2013-01-30 11:52:00,
2013-01-30 03:57:00,43.6,39.4,30.22,East,88,0.0,2.0,85,0.00,,---,0.00,VWS V14.01,2013-01-30 11:57:00,
2013-01-30 04:02:00,43.3,39.1,30.22,East,82,0.0,4.0,85,0.00,,---,0.00,VWS V14.01,2013-01-30 12:02:00,
2013-01-30 04:07:00,43.1,38.9,30.22,East,82,0.0,0.0,85,0.00,,---,0.00,VWS V14.01,2013-01-30 12:07:00,
2013-01-30 04:12:00,42.8,38.9,30.22,East,82,0.0,3.0,86,0.00,,---,0.00,VWS V14.01,2013-01-30 12:12:00,
2013-01-30 04:17:00,42.6,38.7,30.22,East,82,0.0,4.0,86,0.00,,---,0.00,VWS V14.01,2013-01-30 12:17:00,
2013-01-30 04:22:00,42.5,38.9,30.22,ENE,66,1.0,5.0,87,0.00,,---,0.00,VWS V14.01,2013-01-30 12:22:00,
2013-01-30 04:27:00,42.5,38.9,30.22,ENE,76,0.0,5.0,87,0.00,,---,0.00,VWS V14.01,2013-01-30 12:27:00,
2013-01-30 04:32:00,42.3,38.7,30.22,East,86,0.0,0.0,87,0.00,,---,0.00,VWS V14.01,2013-01-30 12:32:00,
2013-01-30 04:37:00,42.2,38.6,30.22,East,85,0.0,0.0,87,0.00,,---,0.00,VWS V14.01,2013-01-30 12:37:00,
2013-01-30 04:42:00,42.3,39.0,30.22,ESE,110,0.0,5.0,88,0.00,,---,0.00,VWS V14.01,2013-01-30 12:42:00,
2013-01-30 04:47:00,42.6,39.3,30.23,ESE,109,0.0,5.0,88,0.00,,---,0.00,VWS V14.01,2013-01-30 12:47:00,
2013-01-30 04:52:00,42.9,39.3,30.23,SE,126,0.0,5.0,87,0.00,,---,0.00,VWS V14.01,2013-01-30 12:52:00,
2013-01-30 04:57:00,42.8,39.2,30.23,SE,128,0.0,5.0,87,0.00,,---,0.00,VWS V14.01,2013-01-30 12:57:00,
2013-01-30 05:02:00,42.5,38.9,30.23,SE,128,0.0,0.0,87,0.00,,---,0.00,VWS V14.01,2013-01-30 13:02:00,
2013-01-30 05:07:00,42.1,38.8,30.23,SSW,208,0.0,0.0,88,0.00,,---,0.00,VWS V14.01,2013-01-30 13:07:00,
2013-01-30 05:12:00,41.8,38.5,30.23,SSW,208,0.0,0.0,88,0.00,,---,0.00,VWS V14.01,2013-01-30 13:12:00,
2013-01-30 05:17:00,41.6,38.6,30.23,SSW,208,0.0,1.0,89,0.00,,---,0.00,VWS V14.01,2013-01-30 13:17:00,
2013-01-30 05:22:00,41.3,38.3,30.23,SSW,213,0.0,1.0,89,0.00,,---,0.00,VWS V14.01,2013-01-30 13:22:00,
2013-01-30 05:27:00,41.2,38.2,30.23,SSW,213,0.0,1.0,89,0.00,,---,0.00,VWS V14.01,2013-01-30 13:27:00,
2013-01-30 05:32:00,41.2,38.5,30.23,SSW,213,0.0,0.0,90,0.00,,---,0.00,VWS V14.01,2013-01-30 13:32:00,
2013-01-30 05:37:00,41.1,38.4,30.23,SSW,213,0.0,3.0,90,0.00,,---,0.00,VWS V14.01,2013-01-30 13:37:00,
2013-01-30 05:42:00,40.9,38.2,30.23,SSW,213,0.0,3.0,90,0.00,,---,0.00,VWS V14.01,2013-01-30 13:42:00,
2013-01-30 05:47:00,40.9,38.2,30.24,SSW,213,0.0,3.0,90,0.00,,---,0.00,VWS V14.01,2013-01-30 13:47:00,
2013-01-30 05:52:00,40.9,38.2,30.24,SSW,213,0.0,3.0,90,0.00,,---,0.00,VWS V14.01,2013-01-30 13:52:00,
2013-01-30 05:57:00,40.9,38.2,30.24,SSW,213,0.0,3.0,90,0.00,,---,0.00,VWS V14.01,2013-01-30 13:57:00,
2013-01-30 06:02:00,40.9,38.2,30.24,SSW,213,0.0,0.0,90,0.00,,---,0.00,VWS V14.01,2013-01-30 14:02:00,
2013-01-30 06:07:00,40.9,38.2,30.24,SSW,213,0.0,0.0,90,0.00,,---,0.00,VWS V14.01,2013-01-30 14:07:00,
2013-01-30 06:12:00,40.8,38.1,30.24,SSW,213,0.0,0.0,90,0.00,,---,0.00,VWS V14.01,2013-01-30 14:12:00,
2013-01-30 06:17:00,40.6,37.9,30.25,SSW,213,0.0,0.0,90,0.00,,---,0.00,VWS V14.01,2013-01-30 14:17:00,
2013-01-30 06:22:00,40.5,37.8,30.25,SSW,213,0.0,0.0,90,0.00,,---,0.00,VWS V14.01,2013-01-30 14:22:00,
2013-01-30 06:27:00,40.5,38.1,30.25,SSW,213,0.0,0.0,91,0.00,,---,0.00,VWS V14.01,2013-01-30 14:27:00,
2013-01-30 06:32:00,40.3,37.9,30.25,SSW,213,0.0,0.0,91,0.00,,---,0.00,VWS V14.01,2013-01-30 14:32:00,
2013-01-30 06:37:00,40.2,37.8,30.25,SSW,213,0.0,0.0,91,0.00,,---,0.00,VWS V14.01,2013-01-30 14:37:00,
2013-01-30 06:42:00,40.1,37.7,30.25,SSW,213,0.0,0.0,91,0.00,,---,0.00,VWS V14.01,2013-01-30 14:42:00,
2013-01-30 06:47:00,40.1,37.7,30.25,SSW,213,0.0,0.0,91,0.00,,---,0.00,VWS V14.01,2013-01-30 14:47:00,
2013-01-30 06:52:00,39.9,37.8,30.25,SSW,213,0.0,0.0,92,0.00,,---,0.00,VWS V14.01,2013-01-30 14:52:00,
2013-01-30 06:57:00,39.9,37.8,30.25,SSW,213,0.0,0.0,92,0.00,,---,0.00,VWS V14.01,2013-01-30 14:57:00,
2013-01-30 07:02:00,39.8,37.7,30.26,SSW,213,0.0,0.0,92,0.00,,---,0.00,VWS V14.01,2013-01-30 15:02:00,
2013-01-30 07:07:00,39.8,37.7,30.26,SSW,213,0.0,0.0,92,0.00,,---,0.00,VWS V14.01,2013-01-30 15:07:00,
2013-01-30 07:12:00,39.8,37.7,30.26,SSW,213,0.0,0.0,92,0.00,,---,0.00,VWS V14.01,2013-01-30 15:12:00,
2013-01-30 07:17:00,39.6,37.5,30.26,SSW,213,0.0,0.0,92,0.00,,---,0.00,VWS V14.01,2013-01-30 15:17:00,
2013-01-30 07:22:00,39.8,37.7,30.26,SSW,213,0.0,1.0,92,0.00,,---,0.00,VWS V14.01,2013-01-30 15:22:00,
2013-01-30 07:27:00,39.9,37.8,30.26,SSW,213,0.0,1.0,92,0.00,,---,0.00,VWS V14.01,2013-01-30 15:27:00,
2013-01-30 07:32:00,40.1,38.0,30.27,SSW,213,1.0,3.0,92,0.00,,---,0.00,VWS V14.01,2013-01-30 15:32:00,
2013-01-30 07:37:00,40.1,38.0,30.27,SSW,213,0.0,3.0,92,0.00,,---,0.00,VWS V14.01,2013-01-30 15:37:00,
2013-01-30 07:42:00,40.1,38.0,30.27,SSW,213,0.0,3.0,92,0.00,,---,0.00,VWS V14.01,2013-01-30 15:42:00,
2013-01-30 07:47:00,40.1,38.0,30.27,SSW,213,0.0,3.0,92,0.00,,---,0.00,VWS V14.01,2013-01-30 15:47:00,
2013-01-30 07:52:00,40.2,38.1,30.27,SSW,213,0.0,3.0,92,0.00,,---,0.00,VWS V14.01,2013-01-30 15:52:00,
2013-01-30 07:58:00,40.2,38.3,30.27,SSW,213,0.0,3.0,93,0.00,,---,0.00,VWS V14.01,2013-01-30 15:58:00,
2013-01-30 08:03:00,40.3,38.4,30.29,SSW,213,0.0,0.0,93,0.00,,---,0.00,VWS V14.01,2013-01-30 16:03:00,
2013-01-30 08:08:00,40.3,38.2,30.29,SSW,213,0.0,0.0,92,0.00,,---,0.00,VWS V14.01,2013-01-30 16:08:00,
2013-01-30 08:13:00,40.3,38.4,30.29,SSW,213,0.0,0.0,93,0.00,,---,0.00,VWS V14.01,2013-01-30 16:13:00,
2013-01-30 08:18:00,40.5,38.6,30.30,SSW,213,0.0,0.0,93,0.00,,---,0.00,VWS V14.01,2013-01-30 16:18:00,
2013-01-30 08:23:00,40.6,38.7,30.30,SSW,213,0.0,0.0,93,0.00,,---,0.00,VWS V14.01,2013-01-30 16:23:00,
2013-01-30 08:28:00,40.8,38.9,30.30,SSW,213,0.0,0.0,93,0.00,,---,0.00,VWS V14.01,2013-01-30 16:28:00,
2013-01-30 08:33:00,41.1,39.0,30.30,SSW,213,0.0,0.0,92,0.00,,---,0.00,VWS V14.01,2013-01-30 16:33:00,
2013-01-30 08:38:00,41.3,39.2,30.30,SSW,213,0.0,0.0,92,0.00,,---,0.00,VWS V14.01,2013-01-30 16:38:00,
2013-01-30 08:43:00,41.6,39.5,30.30,SSW,213,0.0,0.0,92,0.00,,---,0.00,VWS V14.01,2013-01-30 16:43:00,
2013-01-30 08:48:00,41.9,39.8,30.31,SSW,213,0.0,0.0,92,0.00,,---,0.00,VWS V14.01,2013-01-30 16:48:00,
2013-01-30 08:53:00,42.5,40.1,30.31,SSW,213,0.0,0.0,91,0.00,,---,0.00,VWS V14.01,2013-01-30 16:53:00,
2013-01-30 08:58:00,43.2,40.8,30.31,SSW,213,0.0,0.0,91,0.00,,---,0.00,VWS V14.01,2013-01-30 16:58:00,
2013-01-30 09:03:00,43.8,41.1,30.31,SSW,213,0.0,0.0,90,0.00,,---,0.00,VWS V14.01,2013-01-30 17:03:00,
2013-01-30 09:08:00,44.9,41.9,30.31,SSW,213,0.0,0.0,89,0.00,,---,0.00,VWS V14.01,2013-01-30 17:08:00,
2013-01-30 09:13:00,45.4,41.8,30.31,SSW,213,0.0,0.0,87,0.00,,---,0.00,VWS V14.01,2013-01-30 17:13:00,
2013-01-30 09:18:00,46.1,42.8,30.31,SSW,213,0.0,0.0,88,0.00,,---,0.00,VWS V14.01,2013-01-30 17:18:00,
2013-01-30 09:23:00,46.8,42.5,30.31,SSW,213,0.0,0.0,85,0.00,,---,0.00,VWS V14.01,2013-01-30 17:23:00,
2013-01-30 09:28:00,46.7,42.4,30.31,SSW,213,0.0,0.0,85,0.00,,---,0.00,VWS V14.01,2013-01-30 17:28:00,
2013-01-30 09:33:00,47.0,42.4,30.32,SSW,213,0.0,0.0,84,0.00,,---,0.00,VWS V14.01,2013-01-30 17:33:00,
2013-01-30 09:38:00,47.3,42.4,30.32,SSW,213,0.0,0.0,83,0.00,,---,0.00,VWS V14.01,2013-01-30 17:38:00,
2013-01-30 09:43:00,47.7,42.5,30.32,SSW,213,0.0,0.0,82,0.00,,---,0.00,VWS V14.01,2013-01-30 17:43:00,
2013-01-30 09:48:00,48.2,43.0,30.32,SSW,213,0.0,0.0,82,0.00,,---,0.00,VWS V14.01,2013-01-30 17:48:00,
2013-01-30 09:53:00,48.6,43.0,30.32,SSW,213,0.0,0.0,81,0.00,,---,0.00,VWS V14.01,2013-01-30 17:53:00,
2013-01-30 09:58:00,49.2,43.3,30.32,SSW,213,0.0,0.0,80,0.00,,---,0.00,VWS V14.01,2013-01-30 17:58:00,
2013-01-30 10:04:00,49.8,43.9,30.31,SSW,213,0.0,0.0,80,0.00,,---,0.00,VWS V14.01,2013-01-30 18:04:00,
2013-01-30 10:09:00,50.4,44.1,30.31,SSW,213,0.0,0.0,79,0.00,,---,0.00,VWS V14.01,2013-01-30 18:09:00,
2013-01-30 10:14:00,51.0,44.0,30.31,SSW,213,0.0,0.0,77,0.00,,---,0.00,VWS V14.01,2013-01-30 18:14:00,
2013-01-30 10:19:00,51.4,43.8,30.31,SSW,213,0.0,0.0,75,0.00,,---,0.00,VWS V14.01,2013-01-30 18:19:00,
2013-01-30 10:24:00,51.9,44.2,30.31,SSW,213,0.0,0.0,75,0.00,,---,0.00,VWS V14.01,2013-01-30 18:24:00,
2013-01-30 10:29:00,52.3,44.3,30.31,SSW,213,0.0,0.0,74,0.00,,---,0.00,VWS V14.01,2013-01-30 18:29:00,
2013-01-30 10:34:00,52.9,44.5,30.31,SSW,213,0.0,0.0,73,0.00,,---,0.00,VWS V14.01,2013-01-30 18:34:00,
2013-01-30 10:39:00,53.3,44.2,30.31,SSW,213,0.0,0.0,71,0.00,,---,0.00,VWS V14.01,2013-01-30 18:39:00,
2013-01-30 10:44:00,53.9,44.7,30.31,SSW,213,0.0,0.0,71,0.00,,---,0.00,VWS V14.01,2013-01-30 18:44:00,
2013-01-30 10:49:00,54.7,45.1,30.31,SSW,213,0.0,0.0,70,0.00,,---,0.00,VWS V14.01,2013-01-30 18:49:00,
2013-01-30 10:54:00,55.6,45.2,30.31,SSW,213,0.0,0.0,68,0.00,,---,0.00,VWS V14.01,2013-01-30 18:54:00,
2013-01-30 10:59:00,56.0,45.2,30.31,SSW,213,0.0,0.0,67,0.00,,---,0.00,VWS V14.01,2013-01-30 18:59:00,
2013-01-30 11:04:00,56.7,45.5,30.31,SSW,213,0.0,0.0,66,0.00,,---,0.00,VWS V14.01,2013-01-30 19:04:00,
2013-01-30 11:09:00,57.5,45.4,30.31,SSW,213,0.0,0.0,64,0.00,,---,0.00,VWS V14.01,2013-01-30 19:09:00,
2013-01-30 11:14:00,58.1,45.2,30.31,SSW,213,0.0,0.0,62,0.00,,---,0.00,VWS V14.01,2013-01-30 19:14:00,
2013-01-30 11:19:00,58.7,45.3,30.30,West,278,0.0,0.0,61,0.00,,---,0.00,VWS V14.01,2013-01-30 19:19:00,
2013-01-30 11:24:00,59.3,45.0,30.30,WNW,283,0.0,0.0,59,0.00,,---,0.00,VWS V14.01,2013-01-30 19:24:00,
2013-01-30 11:29:00,59.6,44.8,30.30,WNW,301,2.0,2.0,58,0.00,,---,0.00,VWS V14.01,2013-01-30 19:29:00,
2013-01-30 11:34:00,59.9,44.2,30.30,WNW,301,0.0,0.0,56,0.00,,---,0.00,VWS V14.01,2013-01-30 19:34:00,
2013-01-30 11:39:00,60.1,44.4,30.30,WNW,301,0.0,0.0,56,0.00,,---,0.00,VWS V14.01,2013-01-30 19:39:00,
2013-01-30 11:44:00,60.2,44.5,30.30,NW,313,0.0,1.0,56,0.00,,---,0.00,VWS V14.01,2013-01-30 19:44:00,
2013-01-30 11:49:00,60.5,44.3,30.30,NW,313,0.0,1.0,55,0.00,,---,0.00,VWS V14.01,2013-01-30 19:49:00,
2013-01-30 11:54:00,61.0,44.2,30.30,NW,313,0.0,1.0,54,0.00,,---,0.00,VWS V14.01,2013-01-30 19:54:00,
2013-01-30 11:59:00,61.2,44.9,30.30,NW,313,0.0,1.0,55,0.00,,---,0.00,VWS V14.01,2013-01-30 19:59:00,
2013-01-30 12:04:00,61.6,44.3,30.29,NW,313,0.0,0.0,53,0.00,,---,0.00,VWS V14.01,2013-01-30 20:04:00,
2013-01-30 12:09:00,62.0,45.2,30.29,NW,313,0.0,0.0,54,0.00,,---,0.00,VWS V14.01,2013-01-30 20:09:00,
2013-01-30 12:14:00,62.4,44.6,30.29,NW,313,0.0,0.0,52,0.00,,---,0.00,VWS V14.01,2013-01-30 20:14:00,
2013-01-30 12:20:00,62.6,44.8,30.28,NW,313,0.0,0.0,52,0.00,,---,0.00,VWS V14.01,2013-01-30 20:20:00,
2013-01-30 12:25:00,63.1,44.0,30.28,NW,313,0.0,-999.0,51,-99.99,,,0.00,weatherlink.com 1.10,2013-01-30 20:25:00,
2013-01-30 12:30:00,63.9,45.4,30.28,NW,313,0.0,1.0,51,0.00,,---,0.00,VWS V14.01,2013-01-30 20:30:00,
2013-01-30 12:35:00,64.3,45.8,30.27,NW,313,0.0,0.0,51,0.00,,---,0.00,VWS V14.01,2013-01-30 20:35:00,
2013-01-30 12:40:00,64.3,45.8,30.27,NW,313,0.0,3.0,51,0.00,,---,0.00,VWS V14.01,2013-01-30 20:40:00,
2013-01-30 12:45:00,64.2,45.7,30.27,NW,315,0.0,4.0,51,0.00,,---,0.00,VWS V14.01,2013-01-30 20:45:00,
2013-01-30 12:50:00,64.2,45.2,30.26,NW,315,0.0,4.0,50,0.00,,---,0.00,VWS V14.01,2013-01-30 20:50:00,
2013-01-30 12:55:00,64.3,44.8,30.26,NW,315,0.0,4.0,49,0.00,,---,0.00,VWS V14.01,2013-01-30 20:55:00,
2013-01-30 13:00:00,64.3,45.3,30.26,NW,315,0.0,4.0,50,0.00,,---,0.00,VWS V14.01,2013-01-30 21:00:00,
2013-01-30 13:05:00,64.8,45.2,30.25,NW,315,0.0,0.0,49,0.00,,---,0.00,VWS V14.01,2013-01-30 21:05:00,
2013-01-30 13:10:00,65.0,45.4,30.25,NW,315,0.0,0.0,49,0.00,,---,0.00,VWS V14.01,2013-01-30 21:10:00,
2013-01-30 13:15:00,65.2,46.1,30.25,NW,315,1.0,3.0,50,0.00,,---,0.00,VWS V14.01,2013-01-30 21:15:00,
2013-01-30 13:20:00,65.3,45.1,30.24,NW,316,0.0,3.0,48,0.00,,---,0.00,VWS V14.01,2013-01-30 21:20:00,
2013-01-30 13:25:00,65.8,45.6,30.24,NW,316,0.0,3.0,48,0.00,,---,0.00,VWS V14.01,2013-01-30 21:25:00,
2013-01-30 13:30:00,66.3,45.5,30.24,NW,316,0.0,3.0,47,0.00,,---,0.00,VWS V14.01,2013-01-30 21:30:00,
2013-01-30 13:35:00,66.9,44.9,30.24,NW,315,0.0,1.0,45,0.00,,---,0.00,VWS V14.01,2013-01-30 21:35:00,
2013-01-30 13:40:00,67.4,45.9,30.24,NW,315,0.0,3.0,46,0.00,,---,0.00,VWS V14.01,2013-01-30 21:40:00,
2013-01-30 13:45:00,67.4,46.5,30.24,WSW,244,0.0,3.0,47,0.00,,---,0.00,VWS V14.01,2013-01-30 21:45:00,
2013-01-30 13:50:00,67.3,47.0,30.24,WNW,289,1.0,6.0,48,0.00,,---,0.00,VWS V14.01,2013-01-30 21:50:00,
2013-01-30 13:55:00,67.3,47.5,30.24,West,277,0.0,6.0,49,0.00,,---,0.00,VWS V14.01,2013-01-30 21:55:00,
2013-01-30 14:00:00,67.4,48.1,30.24,WNW,286,0.0,6.0,50,0.00,,---,0.00,VWS V14.01,2013-01-30 22:00:00,
2013-01-30 14:05:00,67.4,48.1,30.23,WSW,243,0.0,5.0,50,0.00,,---,0.00,VWS V14.01,2013-01-30 22:05:00,
2013-01-30 14:10:00,67.6,48.8,30.23,West,273,3.0,7.0,51,0.00,,---,0.00,VWS V14.01,2013-01-30 22:10:00,
2013-01-30 14:15:00,67.8,48.0,30.23,WSW,253,0.0,7.0,49,0.00,,---,0.00,VWS V14.01,2013-01-30 22:15:00,
2013-01-30 14:20:00,67.6,47.8,30.23,WNW,289,0.0,7.0,49,0.00,,---,0.00,VWS V14.01,2013-01-30 22:20:00,
2013-01-30 14:25:00,67.3,48.0,30.23,WNW,283,0.0,7.0,50,0.00,,---,0.00,VWS V14.01,2013-01-30 22:25:00,
2013-01-30 14:31:00,67.4,47.6,30.23,WNW,289,0.0,7.0,49,0.00,,---,0.00,VWS V14.01,2013-01-30 22:31:00,
2013-01-30 14:36:00,67.3,47.5,30.23,West,272,0.0,3.0,49,0.00,,---,0.00,VWS V14.01,2013-01-30 22:36:00,
2013-01-30 14:41:00,67.4,47.6,30.23,WSW,244,0.0,4.0,49,0.00,,---,0.00,VWS V14.01,2013-01-30 22:41:00,
2013-01-30 14:46:00,67.1,47.3,30.23,West,278,0.0,4.0,49,0.00,,---,0.00,VWS V14.01,2013-01-30 22:46:00,
2013-01-30 14:51:00,67.1,47.3,30.23,West,269,2.0,4.0,49,0.00,,---,0.00,VWS V14.01,2013-01-30 22:51:00,
2013-01-30 14:56:00,67.3,47.5,30.23,West,279,0.0,4.0,49,0.00,,---,0.00,VWS V14.01,2013-01-30 22:56:00,
2013-01-30 15:01:00,67.4,47.6,30.23,NW,304,0.0,4.0,49,0.00,,---,0.00,VWS V14.01,2013-01-30 23:01:00,
2013-01-30 15:06:00,67.1,46.8,30.23,WNW,303,0.0,1.0,48,0.00,,---,0.00,VWS V14.01,2013-01-30 23:06:00,
2013-01-30 15:11:00,67.3,47.5,30.23,WNW,282,0.0,3.0,49,0.00,,---,0.00,VWS V14.01,2013-01-30 23:11:00,
2013-01-30 15:16:00,67.6,47.2,30.23,WNW,283,0.0,3.0,48,0.00,,---,0.00,VWS V14.01,2013-01-30 23:16:00,
2013-01-30 15:21:00,68.1,47.1,30.23,WNW,283,0.0,3.0,47,0.00,,---,0.00,VWS V14.01,2013-01-30 23:21:00,
2013-01-30 15:26:00,68.3,47.3,30.23,West,272,0.0,3.0,47,0.00,,---,0.00,VWS V14.01,2013-01-30 23:26:00,
2013-01-30 15:31:00,68.4,46.8,30.23,West,270,0.0,3.0,46,0.00,,---,0.00,VWS V14.01,2013-01-30 23:31:00,
2013-01-30 15:36:00,68.3,46.7,30.23,West,270,0.0,3.0,46,0.00,,---,0.00,VWS V14.01,2013-01-30 23:36:00,
2013-01-30 15:41:00,68.3,46.7,30.23,WSW,240,0.0,3.0,46,0.00,,---,0.00,VWS V14.01,2013-01-30 23:41:00,
2013-01-30 15:46:00,67.8,45.7,30.23,WSW,240,0.0,3.0,45,0.00,,---,0.00,VWS V14.01,2013-01-30 23:46:00,
2013-01-30 15:51:00,67.4,45.9,30.23,WSW,240,0.0,3.0,46,0.00,,---,0.00,VWS V14.01,2013-01-30 23:51:00,
2013-01-30 15:56:00,67.4,45.9,30.23,WSW,240,0.0,3.0,46,0.00,,---,0.00,VWS V14.01,2013-01-30 23:56:00,
2013-01-30 16:01:00,67.1,46.2,30.23,WSW,240,0.0,3.0,47,0.00,,---,0.00,VWS V14.01,2013-01-31 00:01:00,
2013-01-30 16:06:00,66.6,45.8,30.23,WSW,240,0.0,2.0,47,0.00,,---,0.00,VWS V14.01,2013-01-31 00:06:00,
2013-01-30 16:11:00,66.1,45.9,30.23,WSW,240,0.0,2.0,48,0.00,,---,0.00,VWS V14.01,2013-01-31 00:11:00,
2013-01-30 16:16:00,65.5,46.4,30.23,WSW,240,0.0,2.0,50,0.00,,---,0.00,VWS V14.01,2013-01-31 00:16:00,
2013-01-30 16:21:00,64.3,45.8,30.23,WSW,240,0.0,2.0,51,0.00,,---,0.00,VWS V14.01,2013-01-31 00:21:00,
2013-01-30 16:26:00,63.1,46.2,30.23,WSW,240,0.0,2.0,54,0.00,,---,0.00,VWS V14.01,2013-01-31 00:26:00,
2013-01-30 16:31:00,62.1,46.2,30.23,WSW,240,0.0,2.0,56,0.00,,---,0.00,VWS V14.01,2013-01-31 00:31:00,
2013-01-30 16:36:00,61.3,46.0,30.23,WSW,240,0.0,0.0,57,0.00,,---,0.00,VWS V14.01,2013-01-31 00:36:00,
2013-01-30 16:41:00,60.7,46.8,30.23,WSW,240,0.0,0.0,60,0.00,,---,0.00,VWS V14.01,2013-01-31 00:41:00,
2013-01-30 16:46:00,59.9,46.9,30.22,WSW,240,0.0,0.0,62,0.00,,---,0.00,VWS V14.01,2013-01-31 00:46:00,
2013-01-30 16:51:00,59.2,46.6,30.22,WSW,240,0.0,0.0,63,0.00,,---,0.00,VWS V14.01,2013-01-31 00:51:00,
2013-01-30 16:56:00,58.4,46.3,30.22,WSW,240,0.0,2.0,64,0.00,,---,0.00,VWS V14.01,2013-01-31 00:56:00,
2013-01-30 17:01:00,58.0,45.9,30.22,WSW,240,0.0,2.0,64,0.00,,---,0.00,VWS V14.01,2013-01-31 01:01:00,
2013-01-30 17:06:00,57.5,45.4,30.22,WSW,240,0.0,0.0,64,0.00,,---,0.00,VWS V14.01,2013-01-31 01:06:00,
2013-01-30 17:11:00,57.0,45.4,30.22,WSW,240,0.0,0.0,65,0.00,,---,0.00,VWS V14.01,2013-01-31 01:11:00,
2013-01-30 17:16:00,56.5,45.3,30.22,WSW,240,0.0,0.0,66,0.00,,---,0.00,VWS V14.01,2013-01-31 01:16:00,
2013-01-30 17:21:00,55.7,45.3,30.22,WSW,240,0.0,0.0,68,0.00,,---,0.00,VWS V14.01,2013-01-31 01:21:00,
2013-01-30 17:26:00,55.1,44.7,30.22,WSW,240,0.0,0.0,68,0.00,,---,0.00,VWS V14.01,2013-01-31 01:26:00,
2013-01-30 17:31:00,54.7,45.1,30.22,WSW,240,0.0,0.0,70,0.00,,---,0.00,VWS V14.01,2013-01-31 01:31:00,
2013-01-30 17:36:00,54.2,45.0,30.22,WSW,240,0.0,0.0,71,0.00,,---,0.00,VWS V14.01,2013-01-31 01:36:00,
2013-01-30 17:41:00,53.8,44.6,30.22,WSW,240,0.0,0.0,71,0.00,,---,0.00,VWS V14.01,2013-01-31 01:41:00,
2013-01-30 17:47:00,53.3,44.5,30.22,WSW,240,0.0,0.0,72,0.00,,---,0.00,VWS V14.01,2013-01-31 01:47:00,
2013-01-30 17:52:00,52.8,44.8,30.22,WSW,240,0.0,0.0,74,0.00,,---,0.00,VWS V14.01,2013-01-31 01:52:00,
2013-01-30 17:57:00,52.2,44.5,30.22,WSW,240,0.0,0.0,75,0.00,,---,0.00,VWS V14.01,2013-01-31 01:57:00,
2013-01-30 18:02:00,51.7,44.4,30.22,WSW,240,0.0,0.0,76,0.00,,---,0.00,VWS V14.01,2013-01-31 02:02:00,
2013-01-30 18:07:00,51.3,44.3,30.22,WSW,240,0.0,0.0,77,0.00,,---,0.00,VWS V14.01,2013-01-31 02:07:00,
2013-01-30 18:12:00,51.0,44.4,30.22,WSW,240,0.0,0.0,78,0.00,,---,0.00,VWS V14.01,2013-01-31 02:12:00,
2013-01-30 18:17:00,50.8,44.2,30.22,WSW,240,0.0,0.0,78,0.00,,---,0.00,VWS V14.01,2013-01-31 02:17:00,
2013-01-30 18:22:00,50.5,44.2,30.22,WSW,240,0.0,0.0,79,0.00,,---,0.00,VWS V14.01,2013-01-31 02:22:00,
2013-01-30 18:27:00,50.2,44.0,30.22,WSW,240,0.0,0.0,79,0.00,,---,0.00,VWS V14.01,2013-01-31 02:27:00,
2013-01-30 18:32:00,49.9,43.7,30.22,WSW,240,0.0,0.0,79,0.00,,---,0.00,VWS V14.01,2013-01-31 02:32:00,
2013-01-30 18:37:00,49.8,43.9,30.22,WSW,240,0.0,0.0,80,0.00,,---,0.00,VWS V14.01,2013-01-31 02:37:00,
2013-01-30 18:42:00,49.5,43.6,30.22,WSW,240,0.0,0.0,80,0.00,,---,0.00,VWS V14.01,2013-01-31 02:42:00,
2013-01-30 18:47:00,49.2,43.3,30.22,WSW,240,0.0,0.0,80,0.00,,---,0.00,VWS V14.01,2013-01-31 02:47:00,
2013-01-30 18:52:00,48.9,43.0,30.22,WSW,240,0.0,0.0,80,0.00,,---,0.00,VWS V14.01,2013-01-31 02:52:00,
2013-01-30 18:57:00,48.8,42.9,30.22,WSW,240,0.0,0.0,80,0.00,,---,0.00,VWS V14.01,2013-01-31 02:57:00,
2013-01-30 19:02:00,48.6,42.7,30.22,WSW,240,0.0,0.0,80,0.00,,---,0.00,VWS V14.01,2013-01-31 03:02:00,
2013-01-30 19:07:00,48.5,42.6,30.22,WSW,240,0.0,0.0,80,0.00,,---,0.00,VWS V14.01,2013-01-31 03:07:00,
2013-01-30 19:12:00,48.3,42.4,30.22,WSW,240,0.0,0.0,80,0.00,,---,0.00,VWS V14.01,2013-01-31 03:12:00,
2013-01-30 19:17:00,48.3,42.8,30.22,WSW,240,0.0,0.0,81,0.00,,---,0.00,VWS V14.01,2013-01-31 03:17:00,
2013-01-30 19:22:00,48.2,42.7,30.22,WSW,240,0.0,0.0,81,0.00,,---,0.00,VWS V14.01,2013-01-31 03:22:00,
2013-01-30 19:27:00,48.0,42.5,30.22,WSW,240,0.0,0.0,81,0.00,,---,0.00,VWS V14.01,2013-01-31 03:27:00,
2013-01-30 19:33:00,47.9,42.7,30.22,WSW,240,0.0,0.0,82,0.00,,---,0.00,VWS V14.01,2013-01-31 03:33:00,
2013-01-30 19:38:00,47.6,42.4,30.22,WSW,240,0.0,0.0,82,0.00,,---,0.00,VWS V14.01,2013-01-31 03:38:00,
2013-01-30 19:43:00,47.3,42.1,30.22,WSW,240,0.0,0.0,82,0.00,,---,0.00,VWS V14.01,2013-01-31 03:43:00,
2013-01-30 19:48:00,47.0,41.8,30.22,WSW,240,0.0,0.0,82,0.00,,---,0.00,VWS V14.01,2013-01-31 03:48:00,
2013-01-30 19:53:00,46.7,41.8,30.22,WSW,240,0.0,0.0,83,0.00,,---,0.00,VWS V14.01,2013-01-31 03:53:00,
2013-01-30 19:58:00,46.5,41.6,30.22,WSW,240,0.0,0.0,83,0.00,,---,0.00,VWS V14.01,2013-01-31 03:58:00,
2013-01-30 20:03:00,46.4,41.5,30.22,WSW,240,0.0,0.0,83,0.00,,---,0.00,VWS V14.01,2013-01-31 04:03:00,
2013-01-30 20:08:00,46.4,41.8,30.22,WSW,240,0.0,0.0,84,0.00,,---,0.00,VWS V14.01,2013-01-31 04:08:00,
2013-01-30 20:13:00,46.2,41.6,30.22,WSW,240,0.0,0.0,84,0.00,,---,0.00,VWS V14.01,2013-01-31 04:13:00,
2013-01-30 20:18:00,46.2,41.6,30.23,WSW,240,0.0,0.0,84,0.00,,---,0.00,VWS V14.01,2013-01-31 04:18:00,
2013-01-30 20:23:00,46.2,41.6,30.23,WSW,240,0.0,0.0,84,0.00,,---,0.00,VWS V14.01,2013-01-31 04:23:00,
2013-01-30 20:28:00,46.4,41.8,30.23,WSW,240,0.0,0.0,84,0.00,,---,0.00,VWS V14.01,2013-01-31 04:28:00,
2013-01-30 20:33:00,46.4,41.8,30.24,WSW,240,0.0,0.0,84,0.00,,---,0.00,VWS V14.01,2013-01-31 04:33:00,
2013-01-30 20:38:00,46.1,41.5,30.24,WSW,240,0.0,0.0,84,0.00,,---,0.00,VWS V14.01,2013-01-31 04:38:00,
2013-01-30 20:43:00,45.8,41.2,30.24,WSW,240,0.0,0.0,84,0.00,,---,0.00,VWS V14.01,2013-01-31 04:43:00,
2013-01-30 20:48:00,45.5,41.3,30.24,WSW,240,0.0,0.0,85,0.00,,---,0.00,VWS V14.01,2013-01-31 04:48:00,
2013-01-30 20:53:00,45.2,41.0,30.24,WSW,240,0.0,0.0,85,0.00,,---,0.00,VWS V14.01,2013-01-31 04:53:00,
2013-01-30 20:58:00,44.9,41.0,30.24,WSW,240,0.0,0.0,86,0.00,,---,0.00,VWS V14.01,2013-01-31 04:58:00,
2013-01-30 21:00:00,44.9,41.0,30.24,WSW,240,0.0,0.0,86,0.00,,---,0.00,VWS V14.01,2013-01-31 05:00:00,
2013-01-30 21:01:00,44.9,41.0,30.23,WSW,240,0.0,0.0,86,0.00,,---,0.00,VWS V14.01,2013-01-31 05:01:00,
2013-01-30 21:02:00,44.9,41.0,30.23,WSW,240,0.0,0.0,86,0.00,,---,0.00,VWS V14.01,2013-01-31 05:02:00,
2013-01-30 21:03:00,44.9,41.0,30.23,WSW,240,0.0,0.0,86,0.00,,---,0.00,VWS V14.01,2013-01-31 05:03:00,
2013-01-30 21:08:00,44.9,41.0,30.23,WSW,240,0.0,0.0,86,0.00,,---,0.00,VWS V14.01,2013-01-31 05:08:00,
2013-01-30 21:13:00,44.6,40.7,30.23,WSW,240,0.0,0.0,86,0.00,,---,0.00,VWS V14.01,2013-01-31 05:13:00,
2013-01-30 21:18:00,44.3,40.4,30.23,WSW,240,0.0,0.0,86,0.00,,---,0.00,VWS V14.01,2013-01-31 05:18:00,
2013-01-30 21:23:00,44.2,40.3,30.23,WSW,240,0.0,0.0,86,0.00,,---,0.00,VWS V14.01,2013-01-31 05:23:00,
2013-01-30 21:28:00,44.2,40.6,30.23,WSW,240,0.0,0.0,87,0.00,,---,0.00,VWS V14.01,2013-01-31 05:28:00,
2013-01-30 21:33:00,44.3,40.7,30.22,WSW,240,0.0,0.0,87,0.00,,---,0.00,VWS V14.01,2013-01-31 05:33:00,
2013-01-30 21:38:00,44.2,40.6,30.22,WSW,240,0.0,0.0,87,0.00,,---,0.00,VWS V14.01,2013-01-31 05:38:00,
2013-01-30 21:43:00,44.1,41.0,30.22,WSW,240,0.0,-999.0,87,-99.99,,,0.00,weatherlink.com 1.10,2013-01-31 05:43:00,
2013-01-30 21:48:00,43.9,40.3,30.22,WSW,240,0.0,0.0,87,0.00,,---,0.00,VWS V14.01,2013-01-31 05:48:00,
2013-01-30 21:53:00,43.6,40.0,30.22,WSW,240,0.0,0.0,87,0.00,,---,0.00,VWS V14.01,2013-01-31 05:53:00,
2013-01-30 21:58:00,43.6,40.3,30.22,WSW,240,0.0,0.0,88,0.00,,---,0.00,VWS V14.01,2013-01-31 05:58:00,
2013-01-30 22:03:00,43.6,40.3,30.22,WSW,240,0.0,0.0,88,0.00,,---,0.00,VWS V14.01,2013-01-31 06:03:00,
2013-01-30 22:08:00,43.9,40.9,30.22,WSW,240,0.0,0.0,89,0.00,,---,0.00,VWS V14.01,2013-01-31 06:08:00,
2013-01-30 22:13:00,44.3,41.3,30.22,South,177,0.0,0.0,89,0.00,,---,0.00,VWS V14.01,2013-01-31 06:13:00,
2013-01-30 22:18:00,44.9,42.2,30.22,South,177,0.0,0.0,90,0.00,,---,0.00,VWS V14.01,2013-01-31 06:18:00,
2013-01-30 22:23:00,45.4,42.3,30.22,South,176,0.0,0.0,89,0.00,,---,0.00,VWS V14.01,2013-01-31 06:23:00,
2013-01-30 22:28:00,45.7,42.7,30.22,South,176,0.0,0.0,89,0.00,,---,0.00,VWS V14.01,2013-01-31 06:28:00,
2013-01-30 22:33:00,45.8,43.0,30.22,South,176,0.0,-999.0,88,-99.99,,,0.00,weatherlink.com 1.10,2013-01-31 06:33:00,
2013-01-30 22:38:00,45.8,42.8,30.22,ESE,107,0.0,5.0,89,0.00,,---,0.00,VWS V14.01,2013-01-31 06:38:00,
2013-01-30 22:43:00,46.5,43.4,30.22,ENE,70,0.0,5.0,89,0.00,,---,0.00,VWS V14.01,2013-01-31 06:43:00,
2013-01-30 22:48:00,46.8,43.1,30.22,ENE,70,0.0,5.0,87,0.00,,---,0.00,VWS V14.01,2013-01-31 06:48:00,
2013-01-30 22:53:00,46.7,43.0,30.22,ENE,70,2.0,5.0,87,0.00,,---,0.00,VWS V14.01,2013-01-31 06:53:00,
2013-01-30 22:58:00,47.1,43.4,30.22,ENE,70,0.0,5.0,87,0.00,,---,0.00,VWS V14.01,2013-01-31 06:58:00,
2013-01-30 23:03:00,47.7,43.7,30.23,ESE,112,0.0,4.0,86,0.00,,---,0.00,VWS V14.01,2013-01-31 07:03:00,
2013-01-30 23:09:00,48.2,44.2,30.23,East,90,0.0,4.0,86,0.00,,---,0.00,VWS V14.01,2013-01-31 07:09:00,
2013-01-30 23:14:00,48.3,43.4,30.23,ENE,72,0.0,4.0,83,0.00,,---,0.00,VWS V14.01,2013-01-31 07:14:00,
2013-01-30 23:19:00,48.3,43.4,30.24,ENE,64,0.0,4.0,83,0.00,,---,0.00,VWS V14.01,2013-01-31 07:19:00,
2013-01-30 23:24:00,48.2,43.0,30.24,East,84,0.0,4.0,82,0.00,,---,0.00,VWS V14.01,2013-01-31 07:24:00,
2013-01-30 23:29:00,48.8,43.9,30.24,ESE,102,0.0,5.0,83,0.00,,---,0.00,VWS V14.01,2013-01-31 07:29:00,
2013-01-30 23:34:00,49.5,44.2,30.24,ENE,73,4.0,5.0,82,0.00,,---,0.00,VWS V14.01,2013-01-31 07:34:00,
2013-01-30 23:39:00,50.4,44.5,30.24,ENE,61,2.0,6.0,80,0.00,,---,0.00,VWS V14.01,2013-01-31 07:39:00,
2013-01-30 23:44:00,50.4,43.5,30.24,ENE,76,0.0,6.0,77,0.00,,---,0.00,VWS V14.01,2013-01-31 07:44:00,
2013-01-30 23:49:00,49.5,42.6,30.24,ENE,76,0.0,6.0,77,0.00,,---,0.00,VWS V14.01,2013-01-31 07:49:00,
2013-01-30 23:54:00,48.6,42.4,30.24,ENE,78,0.0,6.0,79,0.00,,---,0.00,VWS V14.01,2013-01-31 07:54:00,
2013-01-30 23:59:00,48.0,42.1,30.24,ESE,105,0.0,6.0,80,0.00,,---,0.00,VWS V14.01,2013-01-31 07:59:00,